Time,TemperatureF,DewpointF,PressureIn,WindDirection,WindDirectionDegrees,WindSpeedMPH,WindSpeedGustMPH,Humidity,HourlyPrecipIn,Conditions,Clouds,dailyrainin,SoftwareType,DateUTC
2013-07-16 00:10:00,79.7,73.0,30.14,NNE,22,0.0,0.0,80,0.00,,,0.00,weatherlink.com 1.10,2013-07-16 04:10:00,
2013-07-16 00:25:00,79.1,73.0,30.14,NNE,23,0.0,0.0,81,0.00,,,0.00,weatherlink.com 1.10,2013-07-16 04:25:00,
2013-07-16 00:40:00,78.8,73.0,30.14,NNE,23,0.0,0.0,83,0.00,,,0.00,weatherlink.com 1.10,2013-07-16 04:40:00,
2013-07-16 00:55:00,78.8,73.0,30.14,NNE,23,0.0,0.0,83,0.00,,,0.00,weatherlink.com 1.10,2013-07-16 04:55:00,
2013-07-16 01:10:00,78.2,73.0,30.14,NNE,23,0.0,0.0,83,0.00,,,0.00,weatherlink.com 1.10,2013-07-16 05:10:00,
2013-07-16 01:25:00,77.9,73.0,30.14,NNE,23,0.0,0.0,84,0.00,,,0.00,weatherlink.com 1.10,2013-07-16 05:25:00,
2013-07-16 01:40:00,77.6,73.0,30.14,NNE,23,0.0,0.0,85,0.00,,,0.00,weatherlink.com 1.10,2013-07-16 05:40:00,
2013-07-16 01:55:00,77.5,73.0,30.14,NNE,23,0.0,0.0,85,0.00,,,0.00,weatherlink.com 1.10,2013-07-16 05:55:00,
2013-07-16 02:10:00,77.4,73.0,30.14,NNE,23,0.0,0.0,85,0.00,,,0.00,weatherlink.com 1.10,2013-07-16 06:10:00,
2013-07-16 02:25:00,77.3,73.0,30.14,NNE,22,0.0,0.0,86,0.00,,,0.00,weatherlink.com 1.10,2013-07-16 06:25:00,
2013-07-16 02:40:00,77.4,73.0,30.14,NNE,22,0.0,0.0,86,0.00,,,0.00,weatherlink.com 1.10,2013-07-16 06:40:00,
2013-07-16 02:55:00,78.0,73.0,30.14,NNE,23,0.0,3.0,84,0.00,,,0.00,weatherlink.com 1.10,2013-07-16 06:55:00,
2013-07-16 03:10:00,78.3,73.0,30.13,NW,323,0.0,3.0,83,0.00,,,0.00,weatherlink.com 1.10,2013-07-16 07:10:00,
2013-07-16 03:25:00,78.4,72.0,30.13,West,261,0.0,2.0,80,0.00,,,0.00,weatherlink.com 1.10,2013-07-16 07:25:00,
2013-07-16 03:41:00,78.2,72.0,30.13,NNE,20,0.0,1.0,80,0.00,,,0.00,weatherlink.com 1.10,2013-07-16 07:41:00,
2013-07-16 03:56:00,77.7,72.0,30.13,NW,304,0.0,0.0,82,0.00,,,0.00,weatherlink.com 1.10,2013-07-16 07:56:00,
2013-07-16 04:11:00,77.1,72.0,30.13,West,279,0.0,1.0,83,0.00,,,0.00,weatherlink.com 1.10,2013-07-16 08:11:00,
2013-07-16 04:26:00,77.0,71.0,30.13,NW,318,0.0,1.0,82,0.00,,,0.00,weatherlink.com 1.10,2013-07-16 08:26:00,
2013-07-16 04:41:00,76.9,70.0,30.13,NNW,330,0.0,2.0,80,0.00,,,0.00,weatherlink.com 1.10,2013-07-16 08:41:00,
2013-07-16 04:56:00,77.0,70.0,30.14,NW,324,0.0,3.0,78,0.00,,,0.00,weatherlink.com 1.10,2013-07-16 08:56:00,
2013-07-16 05:11:00,77.1,69.0,30.14,West,278,0.0,2.0,76,0.00,,,0.00,weatherlink.com 1.10,2013-07-16 09:11:00,
2013-07-16 05:26:00,76.8,69.0,30.14,West,281,1.0,2.0,77,0.00,,,0.00,weatherlink.com 1.10,2013-07-16 09:26:00,
2013-07-16 05:41:00,76.7,69.0,30.15,West,271,0.0,3.0,77,0.00,,,0.00,weatherlink.com 1.10,2013-07-16 09:41:00,
2013-07-16 05:56:00,76.3,69.0,30.15,ENE,60,0.0,2.0,77,0.00,,,0.00,weatherlink.com 1.10,2013-07-16 09:56:00,
2013-07-16 06:11:00,76.1,68.0,30.16,ENE,74,1.0,2.0,77,0.00,,,0.00,weatherlink.com 1.10,2013-07-16 10:11:00,
2013-07-16 06:26:00,76.2,69.0,30.16,WNW,301,0.0,2.0,77,0.00,,,0.00,weatherlink.com 1.10,2013-07-16 10:26:00,
2013-07-16 06:41:00,77.3,69.0,30.16,NW,316,1.0,3.0,75,0.00,,,0.00,weatherlink.com 1.10,2013-07-16 10:41:00,
2013-07-16 06:56:00,78.5,69.0,30.16,NW,319,0.0,3.0,73,0.00,,,0.00,weatherlink.com 1.10,2013-07-16 10:56:00,
2013-07-16 07:11:00,79.2,69.0,30.17,North,8,0.0,4.0,71,0.00,,,0.00,weatherlink.com 1.10,2013-07-16 11:11:00,
2013-07-16 07:26:00,80.3,69.0,30.17,West,269,1.0,2.0,69,0.00,,,0.00,weatherlink.com 1.10,2013-07-16 11:26:00,
2013-07-16 07:41:00,80.4,69.0,30.17,ENE,57,1.0,5.0,68,0.00,,,0.00,weatherlink.com 1.10,2013-07-16 11:41:00,
2013-07-16 07:56:00,81.2,69.0,30.18,North,351,5.0,5.0,67,0.00,,,0.00,weatherlink.com 1.10,2013-07-16 11:56:00,
2013-07-16 08:11:00,81.3,69.0,30.18,SW,231,4.0,7.0,66,0.00,,,0.00,weatherlink.com 1.10,2013-07-16 12:11:00,
2013-07-16 08:26:00,82.1,69.0,30.18,WSW,256,3.0,9.0,65,0.00,,,0.00,weatherlink.com 1.10,2013-07-16 12:26:00,
2013-07-16 08:41:00,82.8,69.0,30.18,ENE,67,3.0,7.0,63,0.00,,,0.00,weatherlink.com 1.10,2013-07-16 12:41:00,
2013-07-16 08:56:00,84.0,70.0,30.18,West,261,4.0,6.0,63,0.00,,,0.00,weatherlink.com 1.10,2013-07-16 12:56:00,
2013-07-16 09:11:00,84.3,69.0,30.18,West,267,6.0,7.0,61,0.00,,,0.00,weatherlink.com 1.10,2013-07-16 13:11:00,
2013-07-16 09:26:00,84.7,69.0,30.17,WSW,258,1.0,7.0,59,0.00,,,0.00,weatherlink.com 1.10,2013-07-16 13:26:00,
2013-07-16 09:41:00,85.9,69.0,30.17,NW,310,1.0,8.0,58,0.00,,,0.00,weatherlink.com 1.10,2013-07-16 13:41:00,
2013-07-16 09:56:00,86.4,70.0,30.17,West,273,2.0,8.0,58,0.00,,,0.00,weatherlink.com 1.10,2013-07-16 13:56:00,
2013-07-16 10:12:00,87.0,69.0,30.17,SSE,153,2.0,7.0,56,0.00,,,0.00,weatherlink.com 1.10,2013-07-16 14:12:00,
2013-07-16 10:26:00,87.6,69.0,30.17,North,355,4.0,5.0,55,0.00,,,0.00,weatherlink.com 1.10,2013-07-16 14:26:00,
2013-07-16 10:41:00,87.7,69.0,30.17,WNW,295,2.0,7.0,54,0.00,,,0.00,weatherlink.com 1.10,2013-07-16 14:41:00,
2013-07-16 10:56:00,88.9,70.0,30.17,East,82,3.0,6.0,54,0.00,,,0.00,weatherlink.com 1.10,2013-07-16 14:56:00,
2013-07-16 11:11:00,89.8,70.0,30.16,NNE,27,1.0,8.0,53,0.00,,,0.00,weatherlink.com 1.10,2013-07-16 15:11:00,
2013-07-16 11:26:00,89.9,70.0,30.16,NNW,335,2.0,6.0,52,0.00,,,0.00,weatherlink.com 1.10,2013-07-16 15:26:00,
2013-07-16 11:41:00,90.5,69.0,30.16,WNW,292,0.0,8.0,50,0.00,,,0.00,weatherlink.com 1.10,2013-07-16 15:41:00,
2013-07-16 11:57:00,91.3,69.0,30.16,WNW,298,4.0,8.0,48,0.00,,,0.00,weatherlink.com 1.10,2013-07-16 15:57:00,
2013-07-16 12:12:00,90.7,69.0,30.16,WNW,287,3.0,8.0,49,0.00,,,0.00,weatherlink.com 1.10,2013-07-16 16:12:00,
2013-07-16 12:27:00,91.5,68.0,30.15,NW,307,1.0,7.0,46,0.00,,,0.00,weatherlink.com 1.10,2013-07-16 16:27:00,
2013-07-16 12:42:00,92.4,67.0,30.15,SW,224,2.0,8.0,43,0.00,,,0.00,weatherlink.com 1.10,2013-07-16 16:42:00,
2013-07-16 12:57:00,92.8,66.0,30.15,ENE,58,2.0,8.0,42,0.00,,,0.00,weatherlink.com 1.10,2013-07-16 16:57:00,
2013-07-16 13:12:00,93.2,67.0,30.15,NE,41,2.0,7.0,42,0.00,,,0.00,weatherlink.com 1.10,2013-07-16 17:12:00,
2013-07-16 13:27:00,93.2,66.0,30.15,West,269,4.0,6.0,40,0.00,,,0.00,weatherlink.com 1.10,2013-07-16 17:27:00,
2013-07-16 13:42:00,92.9,64.0,30.14,West,267,1.0,7.0,39,0.00,,,0.00,weatherlink.com 1.10,2013-07-16 17:42:00,
2013-07-16 13:57:00,92.8,66.0,30.14,WNW,298,2.0,9.0,41,0.00,,,0.00,weatherlink.com 1.10,2013-07-16 17:57:00,
2013-07-16 14:12:00,93.1,65.0,30.14,WNW,300,2.0,9.0,40,0.00,,,0.00,weatherlink.com 1.10,2013-07-16 18:12:00,
2013-07-16 14:27:00,93.3,67.0,30.13,North,8,0.0,7.0,42,0.00,,,0.00,weatherlink.com 1.10,2013-07-16 18:27:00,
2013-07-16 14:42:00,93.8,67.0,30.13,ESE,115,2.0,10.0,41,0.00,,,0.00,weatherlink.com 1.10,2013-07-16 18:42:00,
2013-07-16 14:57:00,94.1,66.0,30.13,WSW,248,8.0,8.0,40,0.00,,,0.00,weatherlink.com 1.10,2013-07-16 18:57:00,
2013-07-16 15:12:00,94.1,67.0,30.13,SE,146,2.0,6.0,41,0.00,,,0.00,weatherlink.com 1.10,2013-07-16 19:12:00,
2013-07-16 15:27:00,93.9,67.0,30.13,North,352,2.0,7.0,41,0.00,,,0.00,weatherlink.com 1.10,2013-07-16 19:27:00,
2013-07-16 15:42:00,93.8,66.0,30.13,NW,319,2.0,9.0,40,0.00,,,0.00,weatherlink.com 1.10,2013-07-16 19:42:00,
2013-07-16 15:57:00,93.2,67.0,30.12,North,359,3.0,8.0,42,0.00,,,0.00,weatherlink.com 1.10,2013-07-16 19:57:00,
2013-07-16 16:12:00,93.3,66.0,30.13,NNW,328,3.0,10.0,40,0.00,,,0.00,weatherlink.com 1.10,2013-07-16 20:12:00,
2013-07-16 16:27:00,93.1,65.0,30.12,SW,225,2.0,12.0,40,0.00,,,0.00,weatherlink.com 1.10,2013-07-16 20:27:00,
2013-07-16 16:42:00,93.4,66.0,30.12,East,95,7.0,10.0,41,0.00,,,0.00,weatherlink.com 1.10,2013-07-16 20:42:00,
2013-07-16 16:57:00,93.2,66.0,30.12,NE,40,3.0,11.0,40,0.00,,,0.00,weatherlink.com 1.10,2013-07-16 20:57:00,
2013-07-16 17:12:00,93.2,66.0,30.12,West,266,4.0,8.0,41,0.00,,,0.00,weatherlink.com 1.10,2013-07-16 21:12:00,
2013-07-16 17:27:00,93.4,65.0,30.11,NW,306,5.0,8.0,39,0.00,,,0.00,weatherlink.com 1.10,2013-07-16 21:27:00,
2013-07-16 17:42:00,92.8,65.0,30.11,NE,40,2.0,6.0,40,0.00,,,0.00,weatherlink.com 1.10,2013-07-16 21:42:00,
2013-07-16 17:57:00,93.0,66.0,30.11,NNW,328,3.0,6.0,41,0.00,,,0.00,weatherlink.com 1.10,2013-07-16 21:57:00,
2013-07-16 18:12:00,92.6,65.0,30.11,NE,56,1.0,5.0,40,0.00,,,0.00,weatherlink.com 1.10,2013-07-16 22:12:00,
2013-07-16 18:27:00,92.9,64.0,30.11,WNW,284,6.0,6.0,39,0.00,,,0.00,weatherlink.com 1.10,2013-07-16 22:27:00,
2013-07-16 18:42:00,92.1,65.0,30.11,NNE,23,3.0,7.0,40,0.00,,,0.00,weatherlink.com 1.10,2013-07-16 22:42:00,
2013-07-16 18:57:00,91.1,65.0,30.11,NNW,348,1.0,6.0,42,0.00,,,0.00,weatherlink.com 1.10,2013-07-16 22:57:00,
2013-07-16 19:12:00,90.6,66.0,30.12,ENE,68,1.0,3.0,44,0.00,,,0.00,weatherlink.com 1.10,2013-07-16 23:12:00,
2013-07-16 19:27:00,89.6,66.0,30.12,ENE,74,0.0,2.0,45,0.00,,,0.00,weatherlink.com 1.10,2013-07-16 23:27:00,
2013-07-16 19:42:00,88.9,66.0,30.12,WNW,291,1.0,3.0,46,0.00,,,0.00,weatherlink.com 1.10,2013-07-16 23:42:00,
2013-07-16 19:57:00,88.2,66.0,30.13,North,352,1.0,3.0,48,0.00,,,0.00,weatherlink.com 1.10,2013-07-16 23:57:00,
2013-07-16 20:12:00,87.6,66.0,30.13,North,6,0.0,3.0,48,0.00,,,0.00,weatherlink.com 1.10,2013-07-17 00:12:00,
2013-07-16 20:27:00,86.8,66.0,30.13,NNE,32,0.0,1.0,50,0.00,,,0.00,weatherlink.com 1.10,2013-07-17 00:27:00,
2013-07-16 20:42:00,86.1,66.0,30.13,WNW,297,0.0,1.0,51,0.00,,,0.00,weatherlink.com 1.10,2013-07-17 00:42:00,
2013-07-16 20:57:00,85.2,66.0,30.13,WNW,288,0.0,1.0,53,0.00,,,0.00,weatherlink.com 1.10,2013-07-17 00:57:00,
2013-07-16 21:12:00,84.2,66.0,30.14,WNW,297,0.0,0.0,54,0.00,,,0.00,weatherlink.com 1.10,2013-07-17 01:12:00,
2013-07-16 21:27:00,83.4,67.0,30.14,WNW,297,0.0,0.0,57,0.00,,,0.00,weatherlink.com 1.10,2013-07-17 01:27:00,
2013-07-16 21:42:00,82.9,67.0,30.14,WNW,297,0.0,0.0,58,0.00,,,0.00,weatherlink.com 1.10,2013-07-17 01:42:00,
2013-07-16 21:57:00,82.2,67.0,30.14,WNW,297,0.0,0.0,60,0.00,,,0.00,weatherlink.com 1.10,2013-07-17 01:57:00,
2013-07-16 22:12:00,81.8,67.0,30.15,WNW,297,0.0,0.0,61,0.00,,,0.00,weatherlink.com 1.10,2013-07-17 02:12:00,
2013-07-16 22:27:00,80.8,67.0,30.15,WNW,296,0.0,0.0,63,0.00,,,0.00,weatherlink.com 1.10,2013-07-17 02:27:00,
2013-07-16 22:42:00,80.5,68.0,30.15,WNW,297,0.0,0.0,65,0.00,,,0.00,weatherlink.com 1.10,2013-07-17 02:42:00,
2013-07-16 22:57:00,80.1,67.0,30.15,WNW,297,0.0,0.0,65,0.00,,,0.00,weatherlink.com 1.10,2013-07-17 02:57:00,
2013-07-16 23:12:00,79.7,67.0,30.15,WNW,297,0.0,0.0,66,0.00,,,0.00,weatherlink.com 1.10,2013-07-17 03:12:00,
2013-07-16 23:27:00,79.6,68.0,30.15,WNW,297,0.0,0.0,67,0.00,,,0.00,weatherlink.com 1.10,2013-07-17 03:27:00,
2013-07-16 23:42:00,79.3,68.0,30.15,WNW,297,0.0,0.0,68,0.00,,,0.00,weatherlink.com 1.10,2013-07-17 03:42:00,
2013-07-16 23:57:00,78.8,68.0,30.14,WNW,297,0.0,0.0,69,0.00,,,0.00,weatherlink.com 1.10,2013-07-17 03:57:00,